This is the latest recevied weather packets stored in our database for station/object EI4HQ. If no packets are shown the sender has not sent any weather packets the latest 10 day(s).
| Time | Temp. | Humidity | Pressure | Rain* | Wind** | Luminosity | Snow |
|---|---|---|---|---|---|---|---|
| 1788540303 | 18.33° C | 61% | 1018.7 hPa | 0 mm | - | - | - |
| 1788539778 | 18.33° C | 60% | 1018.5 hPa | 0 mm | - | - | - |
| 1788539223 | 18.33° C | 62% | 1018.5 hPa | 0 mm | - | - | - |
| 1788538683 | 18.33° C | 63% | 1018.5 hPa | 0 mm | - | - | - |
| 1788538143 | 18.33° C | 62% | 1018.5 hPa | 0 mm | - | - | - |
| 1788537603 | 18.33° C | 65% | 1018.4 hPa | 0 mm | - | - | - |
| 1788537243 | 18.33° C | 64% | 1018.2 hPa | 0 mm | - | - | - |
| 1788536703 | 18.33° C | 63% | 1018.2 hPa | 0 mm | - | - | - |
| 1788536163 | 18.33° C | 64% | 1018.2 hPa | 0 mm | - | - | - |
| 1788535623 | 18.33° C | 65% | 1018.3 hPa | 0 mm | - | - | - |
| 1788535083 | 18.33° C | 65% | 1018.3 hPa | 0 mm | - | - | - |
| 1788534543 | 18.33° C | 66% | 1018.2 hPa | 0 mm | - | - | - |
| 1788534003 | 18.33° C | 66% | 1018.3 hPa | 0 mm | - | - | - |
| 1788533643 | 18.33° C | 66% | 1018.2 hPa | 0 mm | - | - | - |
| 1788533103 | 18.33° C | 64% | 1018.2 hPa | 0 mm | - | - | - |
| 1788532563 | 18.33° C | 65% | 1018 hPa | 0 mm | - | - | - |
| 1788532023 | 17.78° C | 69% | 1017.8 hPa | 0 mm | - | - | - |
| 1788531483 | 17.22° C | 67% | 1017.8 hPa | 0 mm | - | - | - |
| 1788530943 | 17.22° C | 68% | 1017.8 hPa | 0 mm | - | - | - |
| 1788530403 | 17.22° C | 70% | 1018 hPa | 0 mm | - | - | - |
| 1788530043 | 17.22° C | 70% | 1018 hPa | 0 mm | - | - | - |
| 1788529503 | 16.67° C | 69% | 1017.9 hPa | 0 mm | - | - | - |
| 1788528963 | 16.67° C | 69% | 1017.7 hPa | 0 mm | - | - | - |
| 1788528423 | 16.67° C | 69% | 1017.7 hPa | 0 mm | - | - | - |
| 1788527883 | 16.67° C | 68% | 1017.7 hPa | 0 mm | - | - | - |
* Rain latest hour (hover to see other rain measurements)
** Current wind speed in m/s (hover to see current wind gust speed)